Time,TemperatureF,DewpointF,PressureIn,WindDirection,WindDirectionDegrees,WindSpeedMPH,WindSpeedGustMPH,Humidity,HourlyPrecipIn,Conditions,Clouds,dailyrainin,SoftwareType,DateUTC
2013-02-22 00:02:00,17.1,14.4,30.03,WNW,295,14.0,15.0,89,0.00,,,0.00,Wunderground v.1.15,2013-02-22 06:02:00,
2013-02-22 00:12:00,17.0,14.3,30.04,WNW,297,15.0,15.0,89,0.00,,,0.00,Wunderground v.1.15,2013-02-22 06:12:00,
2013-02-22 00:22:00,16.8,14.1,30.05,WNW,293,13.0,14.0,89,0.00,,,0.00,Wunderground v.1.15,2013-02-22 06:22:00,
2013-02-22 00:32:00,16.7,14.0,30.04,WNW,295,15.0,15.0,89,0.00,,,0.00,Wunderground v.1.15,2013-02-22 06:32:00,
2013-02-22 00:41:00,16.4,13.5,30.04,WNW,295,14.0,14.0,88,0.00,,,0.00,Wunderground v.1.15,2013-02-22 06:41:00,
2013-02-22 00:51:00,15.9,13.0,30.05,WNW,295,12.0,12.0,88,0.00,,,0.00,Wunderground v.1.15,2013-02-22 06:51:00,
2013-02-22 01:02:00,15.8,12.9,30.04,NW,304,13.0,17.0,88,0.00,,,0.00,Wunderground v.1.15,2013-02-22 07:02:00,
2013-02-22 01:12:00,15.5,12.6,30.05,WNW,293,14.0,14.0,88,0.00,,,0.00,Wunderground v.1.15,2013-02-22 07:12:00,
2013-02-22 01:21:00,15.1,12.2,30.07,West,270,10.0,10.0,88,0.00,,,0.00,Wunderground v.1.15,2013-02-22 07:21:00,
2013-02-22 01:31:00,14.9,12.0,30.08,WNW,288,10.0,13.0,88,0.00,,,0.00,Wunderground v.1.15,2013-02-22 07:31:00,
2013-02-22 01:42:00,14.9,12.0,30.08,WNW,300,12.0,15.0,88,0.00,,,0.00,Wunderground v.1.15,2013-02-22 07:42:00,
2013-02-22 01:52:00,14.8,11.9,30.08,WNW,294,12.0,14.0,88,0.00,,,0.00,Wunderground v.1.15,2013-02-22 07:52:00,
2013-02-22 02:02:00,15.2,12.5,30.10,WNW,301,11.0,11.0,89,0.00,,,0.00,Wunderground v.1.15,2013-02-22 08:02:00,
2013-02-22 02:12:00,15.5,12.8,30.10,WNW,289,12.0,12.0,89,0.00,,,0.00,Wunderground v.1.15,2013-02-22 08:12:00,
2013-02-22 02:22:00,15.4,12.5,30.10,WNW,290,9.0,10.0,88,0.00,,,0.00,Wunderground v.1.15,2013-02-22 08:22:00,
2013-02-22 02:32:00,15.0,12.1,30.10,WNW,290,9.0,9.0,88,0.00,,,0.00,Wunderground v.1.15,2013-02-22 08:32:00,
2013-02-22 02:42:00,14.9,12.0,30.10,WNW,294,9.0,9.0,88,0.00,,,0.00,Wunderground v.1.15,2013-02-22 08:42:00,
2013-02-22 02:52:00,14.6,11.7,30.10,West,271,8.0,8.0,88,0.00,,,0.00,Wunderground v.1.15,2013-02-22 08:52:00,
2013-02-22 03:02:00,14.2,11.3,30.10,WNW,290,9.0,9.0,88,0.00,,,0.00,Wunderground v.1.15,2013-02-22 09:02:00,
2013-02-22 03:12:00,14.1,11.2,30.10,WNW,293,9.0,10.0,88,0.00,,,0.00,Wunderground v.1.15,2013-02-22 09:12:00,
2013-02-22 03:22:00,14.4,11.5,30.09,WNW,303,11.0,15.0,88,0.00,,,0.00,Wunderground v.1.15,2013-02-22 09:22:00,
2013-02-22 03:32:00,14.8,11.9,30.09,WNW,302,15.0,15.0,88,0.00,,,0.00,Wunderground v.1.15,2013-02-22 09:32:00,
2013-02-22 03:42:00,14.5,11.3,30.08,NW,307,14.0,14.0,87,0.00,,,0.00,Wunderground v.1.15,2013-02-22 09:42:00,
2013-02-22 03:52:00,14.3,11.1,30.08,WNW,295,15.0,15.0,87,0.00,,,0.00,Wunderground v.1.15,2013-02-22 09:52:00,
2013-02-22 04:02:00,14.0,10.8,30.09,WNW,293,14.0,14.0,87,0.00,,,0.00,Wunderground v.1.15,2013-02-22 10:02:00,
2013-02-22 04:12:00,13.6,10.5,30.08,NW,307,13.0,14.0,87,0.00,,,0.00,Wunderground v.1.15,2013-02-22 10:12:00,
2013-02-22 04:21:00,13.5,10.4,30.10,WNW,302,12.0,12.0,87,0.00,,,0.00,Wunderground v.1.15,2013-02-22 10:21:00,
2013-02-22 04:31:00,13.2,10.1,30.10,WNW,297,11.0,13.0,87,0.00,,,0.00,Wunderground v.1.15,2013-02-22 10:31:00,
2013-02-22 04:41:00,12.6,9.2,30.10,NW,309,11.0,11.0,86,0.00,,,0.00,Wunderground v.1.15,2013-02-22 10:41:00,
2013-02-22 04:51:00,12.3,9.2,30.11,NW,309,10.0,12.0,87,0.00,,,0.00,Wunderground v.1.15,2013-02-22 10:51:00,
2013-02-22 05:02:00,11.9,8.8,30.11,WNW,293,10.0,10.0,87,0.00,,,0.00,Wunderground v.1.15,2013-02-22 11:02:00,
2013-02-22 05:09:00,11.8,8.7,30.12,WNW,293,9.0,-999.0,87,0.00,,,0.00,Wunderground v.1.15,2013-02-22 11:09:00,
2013-02-22 05:12:00,11.7,8.6,30.12,WNW,300,9.0,10.0,87,0.00,,,0.00,Wunderground v.1.15,2013-02-22 11:12:00,
2013-02-22 05:14:00,11.8,8.7,30.12,WNW,293,9.0,-999.0,87,0.00,,,0.00,Wunderground v.1.15,2013-02-22 11:14:00,
2013-02-22 05:19:00,11.8,8.7,30.12,WNW,293,9.0,-999.0,87,0.00,,,0.00,Wunderground v.1.15,2013-02-22 11:19:00,
2013-02-22 05:24:00,12.0,8.9,30.13,WNW,293,9.0,-999.0,87,0.00,,,0.00,Wunderground v.1.15,2013-02-22 11:24:00,
2013-02-22 05:29:00,12.0,8.9,30.13,WNW,293,9.0,-999.0,87,0.00,,,0.00,Wunderground v.1.15,2013-02-22 11:29:00,
2013-02-22 05:34:00,12.0,8.9,30.13,WNW,293,9.0,-999.0,87,0.00,,,0.00,Wunderground v.1.15,2013-02-22 11:34:00,
2013-02-22 05:39:00,11.9,8.8,30.15,WNW,293,7.0,-999.0,87,0.00,,,0.00,Wunderground v.1.15,2013-02-22 11:39:00,
2013-02-22 05:44:00,11.9,8.8,30.15,WNW,293,7.0,-999.0,87,0.00,,,0.00,Wunderground v.1.15,2013-02-22 11:44:00,
2013-02-22 05:49:00,11.9,8.8,30.15,WNW,293,7.0,-999.0,87,0.00,,,0.00,Wunderground v.1.15,2013-02-22 11:49:00,
2013-02-22 05:54:00,12.2,9.1,30.15,WNW,293,9.0,-999.0,87,0.00,,,0.00,Wunderground v.1.15,2013-02-22 11:54:00,
2013-02-22 05:59:00,12.2,9.1,30.15,WNW,293,9.0,-999.0,87,0.00,,,0.00,Wunderground v.1.15,2013-02-22 11:59:00,
2013-02-22 06:04:00,12.2,9.1,30.15,WNW,293,9.0,-999.0,87,0.00,,,0.00,Wunderground v.1.15,2013-02-22 12:04:00,
2013-02-22 06:09:00,12.2,9.1,30.15,WNW,293,9.0,-999.0,87,0.00,,,0.00,Wunderground v.1.15,2013-02-22 12:09:00,
2013-02-22 06:14:00,12.2,9.1,30.15,WNW,293,9.0,-999.0,87,0.00,,,0.00,Wunderground v.1.15,2013-02-22 12:14:00,
2013-02-22 06:19:00,12.2,9.1,30.15,WNW,293,9.0,-999.0,87,0.00,,,0.00,Wunderground v.1.15,2013-02-22 12:19:00,
2013-02-22 06:24:00,12.3,8.9,30.15,WNW,293,8.0,-999.0,86,0.00,,,0.00,Wunderground v.1.15,2013-02-22 12:24:00,
2013-02-22 06:29:00,12.3,8.9,30.15,WNW,293,8.0,-999.0,86,0.00,,,0.00,Wunderground v.1.15,2013-02-22 12:29:00,
2013-02-22 06:34:00,12.3,8.9,30.15,WNW,293,8.0,-999.0,86,0.00,,,0.00,Wunderground v.1.15,2013-02-22 12:34:00,
2013-02-22 06:39:00,11.3,8.2,30.15,WNW,293,8.0,-999.0,87,0.00,,,0.00,Wunderground v.1.15,2013-02-22 12:39:00,
2013-02-22 06:44:00,11.3,8.2,30.15,WNW,293,8.0,-999.0,87,0.00,,,0.00,Wunderground v.1.15,2013-02-22 12:44:00,
2013-02-22 06:49:00,11.3,8.2,30.15,WNW,293,8.0,-999.0,87,0.00,,,0.00,Wunderground v.1.15,2013-02-22 12:49:00,
2013-02-22 06:54:00,11.0,8.1,30.15,WNW,293,8.0,-999.0,88,0.00,,,0.00,Wunderground v.1.15,2013-02-22 12:54:00,
2013-02-22 06:59:00,11.0,8.1,30.15,WNW,293,8.0,-999.0,88,0.00,,,0.00,Wunderground v.1.15,2013-02-22 12:59:00,
2013-02-22 07:04:00,11.0,8.1,30.15,WNW,293,8.0,-999.0,88,0.00,,,0.00,Wunderground v.1.15,2013-02-22 13:04:00,
2013-02-22 07:09:00,11.2,8.1,30.14,WNW,293,11.0,-999.0,87,0.00,,,0.00,Wunderground v.1.15,2013-02-22 13:09:00,
2013-02-22 07:14:00,11.2,8.1,30.14,WNW,293,11.0,-999.0,87,0.00,,,0.00,Wunderground v.1.15,2013-02-22 13:14:00,
2013-02-22 07:19:00,11.2,8.1,30.14,WNW,293,11.0,-999.0,87,0.00,,,0.00,Wunderground v.1.15,2013-02-22 13:19:00,
2013-02-22 07:24:00,11.6,8.2,30.14,WNW,293,13.0,-999.0,86,0.00,,,0.00,Wunderground v.1.15,2013-02-22 13:24:00,
2013-02-22 07:29:00,11.6,8.2,30.14,WNW,293,13.0,-999.0,86,0.00,,,0.00,Wunderground v.1.15,2013-02-22 13:29:00,
2013-02-22 07:34:00,11.6,8.2,30.14,WNW,293,13.0,-999.0,86,0.00,,,0.00,Wunderground v.1.15,2013-02-22 13:34:00,
2013-02-22 07:39:00,11.9,8.3,30.13,NW,315,14.0,-999.0,85,0.00,,,0.00,Wunderground v.1.15,2013-02-22 13:39:00,
2013-02-22 07:44:00,11.9,8.3,30.13,NW,315,14.0,-999.0,85,0.00,,,0.00,Wunderground v.1.15,2013-02-22 13:44:00,
2013-02-22 07:49:00,11.9,8.3,30.13,NW,315,14.0,-999.0,85,0.00,,,0.00,Wunderground v.1.15,2013-02-22 13:49:00,
2013-02-22 07:54:00,12.1,8.5,30.16,NW,315,13.0,-999.0,85,0.00,,,0.00,Wunderground v.1.15,2013-02-22 13:54:00,
2013-02-22 07:59:00,12.1,8.5,30.16,NW,315,13.0,-999.0,85,0.00,,,0.00,Wunderground v.1.15,2013-02-22 13:59:00,
2013-02-22 08:04:00,12.1,8.5,30.16,NW,315,13.0,-999.0,85,0.00,,,0.00,Wunderground v.1.15,2013-02-22 14:04:00,
2013-02-22 08:09:00,12.5,8.6,30.18,WNW,293,13.0,-999.0,84,0.00,,,0.00,Wunderground v.1.15,2013-02-22 14:09:00,
2013-02-22 08:14:00,12.5,8.6,30.18,WNW,293,13.0,-999.0,84,0.00,,,0.00,Wunderground v.1.15,2013-02-22 14:14:00,
2013-02-22 08:19:00,12.5,8.6,30.18,WNW,293,13.0,-999.0,84,0.00,,,0.00,Wunderground v.1.15,2013-02-22 14:19:00,
2013-02-22 08:24:00,12.6,8.4,30.20,WNW,293,9.0,-999.0,83,0.00,,,0.00,Wunderground v.1.15,2013-02-22 14:24:00,
2013-02-22 08:29:00,12.6,8.4,30.20,WNW,293,9.0,-999.0,83,0.00,,,0.00,Wunderground v.1.15,2013-02-22 14:29:00,
2013-02-22 08:34:00,12.6,8.4,30.20,WNW,293,9.0,-999.0,83,0.00,,,0.00,Wunderground v.1.15,2013-02-22 14:34:00,
2013-02-22 08:39:00,12.8,8.6,30.21,WNW,293,9.0,-999.0,83,0.00,,,0.00,Wunderground v.1.15,2013-02-22 14:39:00,
2013-02-22 08:44:00,12.8,8.6,30.21,WNW,293,9.0,-999.0,83,0.00,,,0.00,Wunderground v.1.15,2013-02-22 14:44:00,
2013-02-22 08:49:00,12.8,8.6,30.21,WNW,293,9.0,-999.0,83,0.00,,,0.00,Wunderground v.1.15,2013-02-22 14:49:00,
2013-02-22 08:54:00,12.8,8.3,30.22,WNW,293,10.0,-999.0,82,0.00,,,0.00,Wunderground v.1.15,2013-02-22 14:54:00,
2013-02-22 08:59:00,12.8,8.3,30.22,WNW,293,10.0,-999.0,82,0.00,,,0.00,Wunderground v.1.15,2013-02-22 14:59:00,
2013-02-22 09:04:00,12.8,8.3,30.22,WNW,293,10.0,-999.0,82,0.00,,,0.00,Wunderground v.1.15,2013-02-22 15:04:00,
2013-02-22 09:09:00,13.1,8.6,30.22,WNW,293,10.0,-999.0,82,0.00,,,0.00,Wunderground v.1.15,2013-02-22 15:09:00,
2013-02-22 09:14:00,13.1,8.6,30.22,WNW,293,10.0,-999.0,82,0.00,,,0.00,Wunderground v.1.15,2013-02-22 15:14:00,
2013-02-22 09:19:00,13.1,8.6,30.22,WNW,293,10.0,-999.0,82,0.00,,,0.00,Wunderground v.1.15,2013-02-22 15:19:00,
2013-02-22 09:24:00,13.3,8.8,30.23,WNW,293,10.0,-999.0,82,0.00,,,0.00,Wunderground v.1.15,2013-02-22 15:24:00,
2013-02-22 09:29:00,13.3,8.8,30.23,WNW,293,10.0,-999.0,82,0.00,,,0.00,Wunderground v.1.15,2013-02-22 15:29:00,
2013-02-22 09:34:00,13.3,8.8,30.23,WNW,293,10.0,-999.0,82,0.00,,,0.00,Wunderground v.1.15,2013-02-22 15:34:00,
2013-02-22 09:39:00,14.4,9.6,30.24,WNW,293,9.0,-999.0,81,0.00,,,0.00,Wunderground v.1.15,2013-02-22 15:39:00,
2013-02-22 09:44:00,14.4,9.6,30.24,WNW,293,9.0,-999.0,81,0.00,,,0.00,Wunderground v.1.15,2013-02-22 15:44:00,
2013-02-22 09:49:00,14.4,9.6,30.24,WNW,293,9.0,-999.0,81,0.00,,,0.00,Wunderground v.1.15,2013-02-22 15:49:00,
2013-02-22 09:54:00,14.7,9.9,30.25,WNW,293,11.0,-999.0,81,0.00,,,0.00,Wunderground v.1.15,2013-02-22 15:54:00,
2013-02-22 09:59:00,14.7,9.9,30.25,WNW,293,11.0,-999.0,81,0.00,,,0.00,Wunderground v.1.15,2013-02-22 15:59:00,
2013-02-22 10:04:00,14.7,9.9,30.25,WNW,293,11.0,-999.0,81,0.00,,,0.00,Wunderground v.1.15,2013-02-22 16:04:00,
2013-02-22 10:09:00,15.6,10.5,30.24,WNW,293,10.0,-999.0,80,0.00,,,0.00,Wunderground v.1.15,2013-02-22 16:09:00,
2013-02-22 10:14:00,15.6,10.5,30.24,WNW,293,10.0,-999.0,80,0.00,,,0.00,Wunderground v.1.15,2013-02-22 16:14:00,
2013-02-22 10:19:00,15.6,10.5,30.24,WNW,293,10.0,-999.0,80,0.00,,,0.00,Wunderground v.1.15,2013-02-22 16:19:00,
2013-02-22 10:24:00,16.5,11.4,30.24,WNW,293,10.0,-999.0,80,0.00,,,0.00,Wunderground v.1.15,2013-02-22 16:24:00,
2013-02-22 10:29:00,16.5,11.4,30.24,WNW,293,10.0,-999.0,80,0.00,,,0.00,Wunderground v.1.15,2013-02-22 16:29:00,
2013-02-22 10:34:00,16.5,11.4,30.24,WNW,293,10.0,-999.0,80,0.00,,,0.00,Wunderground v.1.15,2013-02-22 16:34:00,
2013-02-22 10:39:00,17.1,11.7,30.25,WNW,293,10.0,-999.0,79,0.00,,,0.00,Wunderground v.1.15,2013-02-22 16:39:00,
2013-02-22 10:44:00,17.1,11.7,30.25,WNW,293,10.0,-999.0,79,0.00,,,0.00,Wunderground v.1.15,2013-02-22 16:44:00,
2013-02-22 10:49:00,17.1,11.7,30.25,WNW,293,10.0,-999.0,79,0.00,,,0.00,Wunderground v.1.15,2013-02-22 16:49:00,
2013-02-22 10:54:00,17.6,11.9,30.25,WNW,293,10.0,-999.0,78,0.00,,,0.00,Wunderground v.1.15,2013-02-22 16:54:00,
2013-02-22 10:59:00,17.6,11.9,30.25,WNW,293,10.0,-999.0,78,0.00,,,0.00,Wunderground v.1.15,2013-02-22 16:59:00,
2013-02-22 11:04:00,17.6,11.9,30.25,WNW,293,10.0,-999.0,78,0.00,,,0.00,Wunderground v.1.15,2013-02-22 17:04:00,
2013-02-22 11:09:00,18.5,12.8,30.26,WNW,293,9.0,-999.0,78,0.00,,,0.00,Wunderground v.1.15,2013-02-22 17:09:00,
2013-02-22 11:14:00,18.5,12.8,30.26,WNW,293,9.0,-999.0,78,0.00,,,0.00,Wunderground v.1.15,2013-02-22 17:14:00,
2013-02-22 11:19:00,18.5,12.8,30.26,WNW,293,9.0,-999.0,78,0.00,,,0.00,Wunderground v.1.15,2013-02-22 17:19:00,
2013-02-22 11:24:00,19.1,13.4,30.26,WNW,293,10.0,-999.0,78,0.00,,,0.00,Wunderground v.1.15,2013-02-22 17:24:00,
2013-02-22 11:29:00,19.1,13.4,30.26,WNW,293,10.0,-999.0,78,0.00,,,0.00,Wunderground v.1.15,2013-02-22 17:29:00,
2013-02-22 11:34:00,19.1,13.4,30.26,WNW,293,10.0,-999.0,78,0.00,,,0.00,Wunderground v.1.15,2013-02-22 17:34:00,
2013-02-22 11:39:00,19.5,13.8,30.26,WNW,293,8.0,-999.0,78,0.00,,,0.00,Wunderground v.1.15,2013-02-22 17:39:00,
2013-02-22 11:44:00,19.5,13.8,30.26,WNW,293,8.0,-999.0,78,0.00,,,0.00,Wunderground v.1.15,2013-02-22 17:44:00,
2013-02-22 11:49:00,19.5,13.8,30.26,WNW,293,8.0,-999.0,78,0.00,,,0.00,Wunderground v.1.15,2013-02-22 17:49:00,
2013-02-22 11:54:00,20.1,14.3,30.27,WNW,293,8.0,-999.0,78,0.00,,,0.00,Wunderground v.1.15,2013-02-22 17:54:00,
2013-02-22 11:59:00,20.1,14.3,30.27,WNW,293,8.0,-999.0,78,0.00,,,0.00,Wunderground v.1.15,2013-02-22 17:59:00,
2013-02-22 12:04:00,20.1,14.3,30.27,WNW,293,8.0,-999.0,78,0.00,,,0.00,Wunderground v.1.15,2013-02-22 18:04:00,
2013-02-22 12:09:00,21.0,14.9,30.27,WNW,293,6.0,-999.0,77,0.00,,,0.00,Wunderground v.1.15,2013-02-22 18:09:00,
2013-02-22 12:14:00,21.0,14.9,30.27,WNW,293,6.0,-999.0,77,0.00,,,0.00,Wunderground v.1.15,2013-02-22 18:14:00,
2013-02-22 12:19:00,21.0,14.9,30.27,WNW,293,6.0,-999.0,77,0.00,,,0.00,Wunderground v.1.15,2013-02-22 18:19:00,
2013-02-22 12:24:00,21.7,15.6,30.26,WNW,293,6.0,-999.0,77,0.00,,,0.00,Wunderground v.1.15,2013-02-22 18:24:00,
2013-02-22 12:29:00,21.7,15.6,30.26,WNW,293,6.0,-999.0,77,0.00,,,0.00,Wunderground v.1.15,2013-02-22 18:29:00,
2013-02-22 12:34:00,21.7,15.6,30.26,WNW,293,6.0,-999.0,77,0.00,,,0.00,Wunderground v.1.15,2013-02-22 18:34:00,
2013-02-22 12:39:00,22.1,15.4,30.26,WNW,293,8.0,-999.0,75,0.00,,,0.00,Wunderground v.1.15,2013-02-22 18:39:00,
2013-02-22 12:44:00,22.1,15.4,30.26,WNW,293,8.0,-999.0,75,0.00,,,0.00,Wunderground v.1.15,2013-02-22 18:44:00,
2013-02-22 12:49:00,22.1,15.4,30.26,WNW,293,8.0,-999.0,75,0.00,,,0.00,Wunderground v.1.15,2013-02-22 18:49:00,
2013-02-22 12:54:00,22.7,16.0,30.26,WNW,293,7.0,-999.0,75,0.00,,,0.00,Wunderground v.1.15,2013-02-22 18:54:00,
2013-02-22 12:59:00,22.7,16.0,30.26,WNW,293,7.0,-999.0,75,0.00,,,0.00,Wunderground v.1.15,2013-02-22 18:59:00,
2013-02-22 13:04:00,22.7,16.0,30.26,WNW,293,7.0,-999.0,75,0.00,,,0.00,Wunderground v.1.15,2013-02-22 19:04:00,
2013-02-22 13:09:00,23.3,16.5,30.25,WNW,293,6.0,-999.0,75,0.00,,,0.00,Wunderground v.1.15,2013-02-22 19:09:00,
2013-02-22 13:14:00,23.3,16.5,30.25,WNW,293,6.0,-999.0,75,0.00,,,0.00,Wunderground v.1.15,2013-02-22 19:14:00,
2013-02-22 13:19:00,23.3,16.5,30.25,WNW,293,6.0,-999.0,75,0.00,,,0.00,Wunderground v.1.15,2013-02-22 19:19:00,
2013-02-22 13:24:00,23.6,16.2,30.25,WNW,293,7.0,-999.0,73,0.00,,,0.00,Wunderground v.1.15,2013-02-22 19:24:00,
2013-02-22 13:29:00,23.6,16.2,30.25,WNW,293,7.0,-999.0,73,0.00,,,0.00,Wunderground v.1.15,2013-02-22 19:29:00,
2013-02-22 13:34:00,23.6,16.2,30.25,WNW,293,7.0,-999.0,73,0.00,,,0.00,Wunderground v.1.15,2013-02-22 19:34:00,
2013-02-22 13:39:00,23.3,15.3,30.24,WNW,293,8.0,-999.0,71,0.00,,,0.00,Wunderground v.1.15,2013-02-22 19:39:00,
2013-02-22 13:44:00,23.3,15.3,30.24,WNW,293,8.0,-999.0,71,0.00,,,0.00,Wunderground v.1.15,2013-02-22 19:44:00,
2013-02-22 13:49:00,23.3,15.3,30.24,WNW,293,8.0,-999.0,71,0.00,,,0.00,Wunderground v.1.15,2013-02-22 19:49:00,
2013-02-22 13:54:00,23.5,16.1,30.24,WNW,293,9.0,-999.0,73,0.00,,,0.00,Wunderground v.1.15,2013-02-22 19:54:00,
2013-02-22 13:59:00,23.5,16.1,30.24,WNW,293,9.0,-999.0,73,0.00,,,0.00,Wunderground v.1.15,2013-02-22 19:59:00,
2013-02-22 14:04:00,23.5,16.1,30.24,WNW,293,9.0,-999.0,73,0.00,,,0.00,Wunderground v.1.15,2013-02-22 20:04:00,
2013-02-22 14:09:00,23.8,16.1,30.24,WNW,293,8.0,-999.0,72,0.00,,,0.00,Wunderground v.1.15,2013-02-22 20:09:00,
2013-02-22 14:14:00,23.8,16.1,30.24,WNW,293,8.0,-999.0,72,0.00,,,0.00,Wunderground v.1.15,2013-02-22 20:14:00,
2013-02-22 14:19:00,23.8,16.1,30.24,WNW,293,8.0,-999.0,72,0.00,,,0.00,Wunderground v.1.15,2013-02-22 20:19:00,
2013-02-22 14:24:00,24.0,16.3,30.23,WNW,293,7.0,-999.0,72,0.00,,,0.00,Wunderground v.1.15,2013-02-22 20:24:00,
2013-02-22 14:29:00,24.0,16.3,30.23,WNW,293,7.0,-999.0,72,0.00,,,0.00,Wunderground v.1.15,2013-02-22 20:29:00,
2013-02-22 14:34:00,24.0,16.3,30.23,WNW,293,7.0,-999.0,72,0.00,,,0.00,Wunderground v.1.15,2013-02-22 20:34:00,
2013-02-22 14:39:00,24.2,16.8,30.23,WNW,293,8.0,-999.0,73,0.00,,,0.00,Wunderground v.1.15,2013-02-22 20:39:00,
2013-02-22 14:44:00,24.2,16.8,30.23,WNW,293,8.0,-999.0,73,0.00,,,0.00,Wunderground v.1.15,2013-02-22 20:44:00,
2013-02-22 14:49:00,24.2,16.8,30.23,WNW,293,8.0,-999.0,73,0.00,,,0.00,Wunderground v.1.15,2013-02-22 20:49:00,
2013-02-22 14:54:00,24.2,16.8,30.23,WNW,293,9.0,-999.0,73,0.00,,,0.00,Wunderground v.1.15,2013-02-22 20:54:00,
2013-02-22 14:59:00,24.2,16.8,30.23,WNW,293,9.0,-999.0,73,0.00,,,0.00,Wunderground v.1.15,2013-02-22 20:59:00,
2013-02-22 15:04:00,24.2,16.8,30.23,WNW,293,9.0,-999.0,73,0.00,,,0.00,Wunderground v.1.15,2013-02-22 21:04:00,
2013-02-22 15:09:00,24.4,16.7,30.23,WNW,293,8.0,-999.0,72,0.00,,,0.00,Wunderground v.1.15,2013-02-22 21:09:00,
2013-02-22 15:14:00,24.4,16.7,30.23,WNW,293,8.0,-999.0,72,0.00,,,0.00,Wunderground v.1.15,2013-02-22 21:14:00,
2013-02-22 15:19:00,24.4,16.7,30.23,WNW,293,8.0,-999.0,72,0.00,,,0.00,Wunderground v.1.15,2013-02-22 21:19:00,
2013-02-22 15:24:00,24.7,17.3,30.23,WNW,293,8.0,-999.0,73,0.00,,,0.00,Wunderground v.1.15,2013-02-22 21:24:00,
2013-02-22 15:29:00,24.7,17.3,30.23,WNW,293,8.0,-999.0,73,0.00,,,0.00,Wunderground v.1.15,2013-02-22 21:29:00,
2013-02-22 15:34:00,24.7,17.3,30.23,WNW,293,8.0,-999.0,73,0.00,,,0.00,Wunderground v.1.15,2013-02-22 21:34:00,
2013-02-22 15:39:00,24.9,16.8,30.23,WNW,293,7.0,-999.0,71,0.00,,,0.00,Wunderground v.1.15,2013-02-22 21:39:00,
2013-02-22 15:44:00,24.9,16.8,30.23,WNW,293,7.0,-999.0,71,0.00,,,0.00,Wunderground v.1.15,2013-02-22 21:44:00,
2013-02-22 15:49:00,24.9,16.8,30.23,WNW,293,7.0,-999.0,71,0.00,,,0.00,Wunderground v.1.15,2013-02-22 21:49:00,
2013-02-22 15:54:00,24.6,15.9,30.23,NW,315,8.0,-999.0,69,0.00,,,0.00,Wunderground v.1.15,2013-02-22 21:54:00,
2013-02-22 15:59:00,24.6,15.9,30.23,NW,315,8.0,-999.0,69,0.00,,,0.00,Wunderground v.1.15,2013-02-22 21:59:00,
2013-02-22 16:04:00,24.6,15.9,30.23,NW,315,8.0,-999.0,69,0.00,,,0.00,Wunderground v.1.15,2013-02-22 22:04:00,
2013-02-22 16:09:00,24.6,15.5,30.23,WNW,293,8.0,-999.0,68,0.00,,,0.00,Wunderground v.1.15,2013-02-22 22:09:00,
2013-02-22 16:14:00,24.6,15.5,30.23,WNW,293,8.0,-999.0,68,0.00,,,0.00,Wunderground v.1.15,2013-02-22 22:14:00,
2013-02-22 16:19:00,24.6,15.5,30.23,WNW,293,8.0,-999.0,68,0.00,,,0.00,Wunderground v.1.15,2013-02-22 22:19:00,
2013-02-22 16:24:00,24.3,15.3,30.22,WNW,293,8.0,-999.0,68,0.00,,,0.00,Wunderground v.1.15,2013-02-22 22:24:00,
2013-02-22 16:29:00,24.3,15.3,30.22,WNW,293,8.0,-999.0,68,0.00,,,0.00,Wunderground v.1.15,2013-02-22 22:29:00,
2013-02-22 16:34:00,24.3,15.3,30.22,WNW,293,8.0,-999.0,68,0.00,,,0.00,Wunderground v.1.15,2013-02-22 22:34:00,
2013-02-22 16:39:00,24.2,16.1,30.22,NW,315,7.0,-999.0,71,0.00,,,0.00,Wunderground v.1.15,2013-02-22 22:39:00,
2013-02-22 16:44:00,24.2,16.1,30.22,NW,315,7.0,-999.0,71,0.00,,,0.00,Wunderground v.1.15,2013-02-22 22:44:00,
2013-02-22 16:49:00,24.2,16.1,30.22,NW,315,7.0,-999.0,71,0.00,,,0.00,Wunderground v.1.15,2013-02-22 22:49:00,
2013-02-22 16:54:00,23.3,15.0,30.22,NW,315,6.0,-999.0,70,0.00,,,0.00,Wunderground v.1.15,2013-02-22 22:54:00,
2013-02-22 16:59:00,23.3,15.0,30.22,NW,315,6.0,-999.0,70,0.00,,,0.00,Wunderground v.1.15,2013-02-22 22:59:00,
2013-02-22 17:04:00,23.3,15.0,30.22,NW,315,6.0,-999.0,70,0.00,,,0.00,Wunderground v.1.15,2013-02-22 23:04:00,
2013-02-22 17:09:00,22.9,15.5,30.21,NW,315,4.0,-999.0,73,0.00,,,0.00,Wunderground v.1.15,2013-02-22 23:09:00,
2013-02-22 17:14:00,22.9,15.5,30.21,NW,315,4.0,-999.0,73,0.00,,,0.00,Wunderground v.1.15,2013-02-22 23:14:00,
2013-02-22 17:19:00,22.9,15.5,30.21,NW,315,4.0,-999.0,73,0.00,,,0.00,Wunderground v.1.15,2013-02-22 23:19:00,
2013-02-22 17:24:00,23.1,15.4,30.22,NW,315,5.0,-999.0,72,0.00,,,0.00,Wunderground v.1.15,2013-02-22 23:24:00,
2013-02-22 17:29:00,23.1,15.4,30.22,NW,315,5.0,-999.0,72,0.00,,,0.00,Wunderground v.1.15,2013-02-22 23:29:00,
2013-02-22 17:34:00,23.1,15.4,30.22,NW,315,5.0,-999.0,72,0.00,,,0.00,Wunderground v.1.15,2013-02-22 23:34:00,
2013-02-22 17:39:00,22.1,14.4,30.22,NW,315,5.0,-999.0,72,0.00,,,0.00,Wunderground v.1.15,2013-02-22 23:39:00,
2013-02-22 17:44:00,22.1,14.4,30.22,NW,315,5.0,-999.0,72,0.00,,,0.00,Wunderground v.1.15,2013-02-22 23:44:00,
2013-02-22 17:49:00,22.1,14.4,30.22,NW,315,5.0,-999.0,72,0.00,,,0.00,Wunderground v.1.15,2013-02-22 23:49:00,
2013-02-22 17:54:00,21.9,14.6,30.22,NW,315,4.0,-999.0,73,0.00,,,0.00,Wunderground v.1.15,2013-02-22 23:54:00,
2013-02-22 17:59:00,21.9,14.6,30.22,NW,315,4.0,-999.0,73,0.00,,,0.00,Wunderground v.1.15,2013-02-22 23:59:00,
2013-02-22 18:04:00,21.9,14.6,30.22,NW,315,4.0,-999.0,73,0.00,,,0.00,Wunderground v.1.15,2013-02-23 00:04:00,
2013-02-22 18:09:00,22.0,14.7,30.22,NW,315,1.0,-999.0,73,0.00,,,0.00,Wunderground v.1.15,2013-02-23 00:09:00,
2013-02-22 18:14:00,22.0,14.7,30.22,NW,315,1.0,-999.0,73,0.00,,,0.00,Wunderground v.1.15,2013-02-23 00:14:00,
2013-02-22 18:19:00,22.0,14.7,30.22,NW,315,1.0,-999.0,73,0.00,,,0.00,Wunderground v.1.15,2013-02-23 00:19:00,
2013-02-22 18:24:00,20.8,13.8,30.23,N/A,-737280,0.0,-999.0,74,0.00,,,0.00,Wunderground v.1.15,2013-02-23 00:24:00,
2013-02-22 18:29:00,20.8,13.8,30.23,N/A,-737280,0.0,-999.0,74,0.00,,,0.00,Wunderground v.1.15,2013-02-23 00:29:00,
2013-02-22 18:34:00,20.8,13.8,30.23,N/A,-737280,0.0,-999.0,74,0.00,,,0.00,Wunderground v.1.15,2013-02-23 00:34:00,
2013-02-22 18:39:00,20.0,13.3,30.23,N/A,-737280,0.0,-999.0,75,0.00,,,0.00,Wunderground v.1.15,2013-02-23 00:39:00,
2013-02-22 18:44:00,20.0,13.3,30.23,N/A,-737280,0.0,-999.0,75,0.00,,,0.00,Wunderground v.1.15,2013-02-23 00:44:00,
2013-02-22 18:49:00,20.0,13.3,30.23,N/A,-737280,0.0,-999.0,75,0.00,,,0.00,Wunderground v.1.15,2013-02-23 00:49:00,
2013-02-22 18:54:00,19.4,13.4,30.23,West,270,0.0,-999.0,77,0.00,,,0.00,Wunderground v.1.15,2013-02-23 00:54:00,
2013-02-22 18:59:00,19.4,13.4,30.23,West,270,0.0,-999.0,77,0.00,,,0.00,Wunderground v.1.15,2013-02-23 00:59:00,
2013-02-22 19:04:00,19.4,13.4,30.23,West,270,0.0,-999.0,77,0.00,,,0.00,Wunderground v.1.15,2013-02-23 01:04:00,
2013-02-22 19:09:00,19.4,13.7,30.24,West,270,1.0,-999.0,78,0.00,,,0.00,Wunderground v.1.15,2013-02-23 01:09:00,
2013-02-22 19:14:00,19.4,13.7,30.24,West,270,1.0,-999.0,78,0.00,,,0.00,Wunderground v.1.15,2013-02-23 01:14:00,
2013-02-22 19:19:00,19.4,13.7,30.24,West,270,1.0,-999.0,78,0.00,,,0.00,Wunderground v.1.15,2013-02-23 01:19:00,
2013-02-22 19:24:00,19.0,13.6,30.24,WNW,293,1.0,-999.0,79,0.00,,,0.00,Wunderground v.1.15,2013-02-23 01:24:00,
2013-02-22 19:29:00,19.0,13.6,30.24,WNW,293,1.0,-999.0,79,0.00,,,0.00,Wunderground v.1.15,2013-02-23 01:29:00,
2013-02-22 19:34:00,19.0,13.6,30.24,WNW,293,1.0,-999.0,79,0.00,,,0.00,Wunderground v.1.15,2013-02-23 01:34:00,
2013-02-22 19:39:00,18.6,13.7,30.25,West,270,2.0,-999.0,81,0.00,,,0.00,Wunderground v.1.15,2013-02-23 01:39:00,
2013-02-22 19:44:00,18.6,13.7,30.25,West,270,2.0,-999.0,81,0.00,,,0.00,Wunderground v.1.15,2013-02-23 01:44:00,
2013-02-22 19:49:00,18.6,13.7,30.25,West,270,2.0,-999.0,81,0.00,,,0.00,Wunderground v.1.15,2013-02-23 01:49:00,
2013-02-22 19:54:00,18.5,13.6,30.24,West,270,3.0,-999.0,81,0.00,,,0.00,Wunderground v.1.15,2013-02-23 01:54:00,
2013-02-22 19:59:00,18.5,13.6,30.24,West,270,3.0,-999.0,81,0.00,,,0.00,Wunderground v.1.15,2013-02-23 01:59:00,
2013-02-22 20:04:00,18.5,13.6,30.24,West,270,3.0,-999.0,81,0.00,,,0.00,Wunderground v.1.15,2013-02-23 02:04:00,
2013-02-22 20:09:00,18.3,13.7,30.23,WNW,293,3.0,-999.0,82,0.00,,,0.00,Wunderground v.1.15,2013-02-23 02:09:00,
2013-02-22 20:14:00,18.3,13.7,30.23,WNW,293,3.0,-999.0,82,0.00,,,0.00,Wunderground v.1.15,2013-02-23 02:14:00,
2013-02-22 20:19:00,18.3,13.7,30.23,WNW,293,3.0,-999.0,82,0.00,,,0.00,Wunderground v.1.15,2013-02-23 02:19:00,
2013-02-22 20:24:00,17.8,13.2,30.23,WNW,293,3.0,-999.0,82,0.00,,,0.00,Wunderground v.1.15,2013-02-23 02:24:00,
2013-02-22 20:29:00,17.8,13.2,30.23,WNW,293,3.0,-999.0,82,0.00,,,0.00,Wunderground v.1.15,2013-02-23 02:29:00,
2013-02-22 20:34:00,17.8,13.2,30.23,WNW,293,3.0,-999.0,82,0.00,,,0.00,Wunderground v.1.15,2013-02-23 02:34:00,
2013-02-22 20:39:00,17.4,13.4,30.25,West,270,3.0,-999.0,84,0.00,,,0.00,Wunderground v.1.15,2013-02-23 02:39:00,
2013-02-22 20:44:00,17.4,13.4,30.25,West,270,3.0,-999.0,84,0.00,,,0.00,Wunderground v.1.15,2013-02-23 02:44:00,
2013-02-22 20:49:00,17.4,13.4,30.25,West,270,3.0,-999.0,84,0.00,,,0.00,Wunderground v.1.15,2013-02-23 02:49:00,
2013-02-22 20:54:00,17.1,13.1,30.25,WNW,293,4.0,-999.0,84,0.00,,,0.00,Wunderground v.1.15,2013-02-23 02:54:00,
2013-02-22 20:59:00,17.1,13.1,30.25,WNW,293,4.0,-999.0,84,0.00,,,0.00,Wunderground v.1.15,2013-02-23 02:59:00,
2013-02-22 21:04:00,17.1,13.1,30.25,WNW,293,4.0,-999.0,84,0.00,,,0.00,Wunderground v.1.15,2013-02-23 03:04:00,
2013-02-22 21:09:00,17.1,13.1,30.25,WNW,293,5.0,-999.0,84,0.00,,,0.00,Wunderground v.1.15,2013-02-23 03:09:00,
2013-02-22 21:14:00,17.1,13.1,30.25,WNW,293,5.0,-999.0,84,0.00,,,0.00,Wunderground v.1.15,2013-02-23 03:14:00,
2013-02-22 21:19:00,17.1,13.1,30.25,WNW,293,5.0,-999.0,84,0.00,,,0.00,Wunderground v.1.15,2013-02-23 03:19:00,
2013-02-22 21:24:00,17.0,13.0,30.25,WNW,293,5.0,-999.0,84,0.00,,,0.00,Wunderground v.1.15,2013-02-23 03:24:00,
2013-02-22 21:29:00,17.0,13.0,30.25,WNW,293,5.0,-999.0,84,0.00,,,0.00,Wunderground v.1.15,2013-02-23 03:29:00,
2013-02-22 21:34:00,17.0,13.0,30.25,WNW,293,5.0,-999.0,84,0.00,,,0.00,Wunderground v.1.15,2013-02-23 03:34:00,
2013-02-22 21:39:00,16.4,12.4,30.26,WNW,293,4.0,-999.0,84,0.00,,,0.00,Wunderground v.1.15,2013-02-23 03:39:00,
2013-02-22 21:44:00,16.4,12.4,30.26,WNW,293,4.0,-999.0,84,0.00,,,0.00,Wunderground v.1.15,2013-02-23 03:44:00,
2013-02-22 21:49:00,16.4,12.4,30.26,WNW,293,4.0,-999.0,84,0.00,,,0.00,Wunderground v.1.15,2013-02-23 03:49:00,
2013-02-22 21:54:00,15.6,11.6,30.26,WNW,293,2.0,-999.0,84,0.00,,,0.00,Wunderground v.1.15,2013-02-23 03:54:00,
2013-02-22 21:59:00,15.6,11.6,30.26,WNW,293,2.0,-999.0,84,0.00,,,0.00,Wunderground v.1.15,2013-02-23 03:59:00,
2013-02-22 22:04:00,15.6,11.6,30.26,WNW,293,2.0,-999.0,84,0.00,,,0.00,Wunderground v.1.15,2013-02-23 04:04:00,
2013-02-22 22:09:00,14.7,11.3,30.26,WNW,293,0.0,-999.0,86,0.00,,,0.00,Wunderground v.1.15,2013-02-23 04:09:00,
2013-02-22 22:14:00,14.7,11.3,30.26,WNW,293,0.0,-999.0,86,0.00,,,0.00,Wunderground v.1.15,2013-02-23 04:14:00,
2013-02-22 22:19:00,14.7,11.3,30.26,WNW,293,0.0,-999.0,86,0.00,,,0.00,Wunderground v.1.15,2013-02-23 04:19:00,
2013-02-22 22:24:00,13.2,10.1,30.25,West,270,2.0,-999.0,87,0.00,,,0.00,Wunderground v.1.15,2013-02-23 04:24:00,
2013-02-22 22:29:00,13.2,10.1,30.25,West,270,2.0,-999.0,87,0.00,,,0.00,Wunderground v.1.15,2013-02-23 04:29:00,
2013-02-22 22:34:00,13.2,10.1,30.25,West,270,2.0,-999.0,87,0.00,,,0.00,Wunderground v.1.15,2013-02-23 04:34:00,
2013-02-22 22:39:00,13.8,10.9,30.26,West,270,4.0,-999.0,88,0.00,,,0.00,Wunderground v.1.15,2013-02-23 04:39:00,
2013-02-22 22:44:00,13.8,10.9,30.26,West,270,4.0,-999.0,88,0.00,,,0.00,Wunderground v.1.15,2013-02-23 04:44:00,
2013-02-22 22:49:00,13.8,10.9,30.26,West,270,4.0,-999.0,88,0.00,,,0.00,Wunderground v.1.15,2013-02-23 04:49:00,
2013-02-22 22:54:00,13.7,10.8,30.26,WNW,293,3.0,-999.0,88,0.00,,,0.00,Wunderground v.1.15,2013-02-23 04:54:00,
2013-02-22 22:59:00,13.7,10.8,30.26,WNW,293,3.0,-999.0,88,0.00,,,0.00,Wunderground v.1.15,2013-02-23 04:59:00,
2013-02-22 23:04:00,13.7,10.8,30.26,WNW,293,3.0,-999.0,88,0.00,,,0.00,Wunderground v.1.15,2013-02-23 05:04:00,
2013-02-22 23:09:00,13.9,10.7,30.26,WNW,293,3.0,-999.0,87,0.00,,,0.00,Wunderground v.1.15,2013-02-23 05:09:00,
2013-02-22 23:14:00,13.9,10.7,30.26,WNW,293,3.0,-999.0,87,0.00,,,0.00,Wunderground v.1.15,2013-02-23 05:14:00,
2013-02-22 23:19:00,13.9,10.7,30.26,WNW,293,3.0,-999.0,87,0.00,,,0.00,Wunderground v.1.15,2013-02-23 05:19:00,
2013-02-22 23:24:00,13.7,10.5,30.25,WNW,293,3.0,-999.0,87,0.00,,,0.00,Wunderground v.1.15,2013-02-23 05:24:00,
2013-02-22 23:29:00,13.7,10.5,30.25,WNW,293,3.0,-999.0,87,0.00,,,0.00,Wunderground v.1.15,2013-02-23 05:29:00,
2013-02-22 23:34:00,13.7,10.5,30.25,WNW,293,3.0,-999.0,87,0.00,,,0.00,Wunderground v.1.15,2013-02-23 05:34:00,
2013-02-22 23:39:00,13.6,10.5,30.25,WNW,293,3.0,-999.0,87,0.00,,,0.00,Wunderground v.1.15,2013-02-23 05:39:00,
2013-02-22 23:44:00,13.6,10.5,30.25,WNW,293,3.0,-999.0,87,0.00,,,0.00,Wunderground v.1.15,2013-02-23 05:44:00,
2013-02-22 23:49:00,13.6,10.5,30.25,WNW,293,3.0,-999.0,87,0.00,,,0.00,Wunderground v.1.15,2013-02-23 05:49:00,
2013-02-22 23:54:00,13.4,10.5,30.25,NW,315,2.0,-999.0,88,0.00,,,0.00,Wunderground v.1.15,2013-02-23 05:54:00,
2013-02-22 23:59:00,13.4,10.5,30.25,NW,315,2.0,-999.0,88,0.00,,,0.00,Wunderground v.1.15,2013-02-23 05:59:00,